Seeley, CA

6:12 AM PDT on September 27, 2016 (GMT -0700)
El Centro Naval Air Facility

Weather History for KNJK - May, 2013

Change the Weather History Date:

Saturday, May 18, 2013

  Actual Average Record
Temperature  
Mean Temperature 80 °F -  
Max Temperature 95 °F 92 °F 109 °F (2008)
Min Temperature 68 °F 65 °F 57 °F (2011)
Cooling Degree Days 16    
Growing Degree Days 30 (Base 50)    
Moisture  
Dew Point 42 °F    
Average Humidity 29    
Maximum Humidity 45    
Minimum Humidity 12    
Precipitation  
Precipitation 0.00 in - - ()
Sea Level Pressure  
Sea Level Pressure 29.88 in    
Wind  
Wind Speed 12 mph (WSW)    
Max Wind Speed 20 mph    
Max Gust Speed -    
Visibility 10 miles    
Events      
Averages and records for this station are not official NWS values.
T = Trace of Precipitation, MM = Missing Value Source: NWS Daily Summary

Daily Weather History Graph

Daily Weather History Graph

Search for Another Location

Airport or City:

Trip Planner

Search our weather history database for the weather conditions in past years. The results will help you decide how hot, cold, wet, or windy it might be!

Date:

Astronomy

May. 18, 2013 Rise Set
Actual Time 5:41 AM PDT 7:37 PM PDT
Civil Twilight 5:14 AM PDT 8:04 PM PDT
Nautical Twilight 4:40 AM PDT 8:37 PM PDT
Astronomical Twilight 4:05 AM PDT 9:13 PM PDT
Moon 1:05 PM PDT (5/18) 1:13 AM PDT (5/18)
Length of Visible Light 14h 50m
Length of Day
13h 55m
First Quarter, 56% of the Moon is Illuminated
May 18
First Quarter
May 24
Full
May 31
Last Quarter
Jun 8
New
Jun 16
First Quarter

Hourly Weather History & Observations

Time (PDT) Temp. Dew Point Humidity Pressure Visibility Wind Dir Wind Speed Gust Speed Precip Events Conditions
12:56 AM 71.1 °F 44.1 °F 38% 29.88 in 10.0 mi WSW 16.1 mph - N/A   Clear
1:56 AM 69.1 °F 46.0 °F 44% 29.88 in 10.0 mi WSW 19.6 mph - N/A   Clear
2:56 AM 69.1 °F 46.0 °F 44% 29.88 in 10.0 mi WSW 19.6 mph - N/A   Clear
3:56 AM 69.1 °F 46.0 °F 44% 29.89 in 10.0 mi WSW 17.3 mph - N/A   Clear
4:56 AM 68.0 °F 46.0 °F 45% 29.89 in 10.0 mi West 18.4 mph - N/A   Clear
5:56 AM 68.0 °F 46.0 °F 45% 29.91 in 10.0 mi West 16.1 mph - N/A   Partly Cloudy
6:56 AM 70.0 °F 46.0 °F 42% 29.93 in 10.0 mi WSW 18.4 mph - N/A   Partly Cloudy
7:56 AM 73.9 °F 46.0 °F 37% 29.94 in 10.0 mi West 13.8 mph - N/A   Clear
8:56 AM 77.0 °F 45.0 °F 32% 29.95 in 10.0 mi West 6.9 mph - N/A   Clear
9:56 AM 81.0 °F 44.1 °F 27% 29.94 in 10.0 mi NW 3.5 mph - N/A   Clear
10:56 AM 82.0 °F 43.0 °F 25% 29.94 in 10.0 mi Calm Calm - N/A   Clear
11:56 AM 87.1 °F 39.0 °F 18% 29.92 in 10.0 mi NNW 6.9 mph - N/A   Clear
12:56 PM 88.0 °F 37.9 °F 17% 29.90 in 10.0 mi Calm Calm - N/A   Clear
1:56 PM 89.1 °F 37.0 °F 16% 29.89 in 10.0 mi Variable 3.5 mph - N/A   Clear
2:56 PM 91.9 °F 35.1 °F 13% 29.87 in 10.0 mi Calm Calm - N/A   Clear
3:56 PM 91.9 °F 33.1 °F 12% 29.84 in 10.0 mi Calm Calm - N/A   Clear
4:56 PM 93.9 °F 33.1 °F 12% 29.82 in 10.0 mi Variable 3.5 mph - N/A   Clear
5:56 PM 93.0 °F 37.0 °F 14% 29.82 in 10.0 mi ESE 3.5 mph - N/A   Clear
6:56 PM 90.0 °F 45.0 °F 21% 29.82 in 10.0 mi WSW 11.5 mph - N/A   Clear
7:56 PM 84.0 °F 46.0 °F 26% 29.84 in 10.0 mi SW 16.1 mph - N/A   Clear
8:56 PM 81.0 °F 44.1 °F 27% 29.86 in 10.0 mi SW 11.5 mph - N/A   Clear
9:56 PM 78.1 °F 44.1 °F 30% 29.86 in 10.0 mi WSW 12.7 mph - N/A   Clear
10:56 PM 75.9 °F 45.0 °F 33% 29.86 in 10.0 mi WSW 12.7 mph - N/A   Clear
11:56 PM 75.0 °F 43.0 °F 32% 29.86 in 10.0 mi WSW 10.4 mph - N/A   Clear